TimeMDT,TemperatureF,Dew PointF,Humidity,Sea Level PressureIn,VisibilityMPH,Wind Direction,Wind SpeedMPH,Gust SpeedMPH,PrecipitationIn,Events,Conditions,WindDirDegrees,DateUTC
12:00 AM,13,11,89,29.68,,NW,3.5,,,,,320,2013-09-06 06:00:00
12:00 AM,12.7,11.3,94,-9999,-9999.0,NW,3.5,-,N/A,,Unknown,320,2013-09-06 06:00:00
1:00 AM,13.1,11.8,95,29.68,-9999.0,NW,3.5,-,N/A,,Unknown,320,2013-09-06 07:00:00
2:00 AM,13.1,11.7,94,29.69,-9999.0,NW,3.5,-,N/A,,Unknown,320,2013-09-06 08:00:00
3:00 AM,12.2,10.6,93,29.69,-9999.0,NW,4.6,-,N/A,,Unknown,310,2013-09-06 09:00:00
4:00 AM,12.6,10.9,93,29.70,-9999.0,WNW,2.3,-,N/A,,Unknown,290,2013-09-06 10:00:00
5:00 AM,14.0,12.7,95,29.70,-9999.0,Calm,Calm,-,0.01,,Unknown,0,2013-09-06 11:00:00
6:00 AM,15,13,89,29.70,,WNW,2.3,,,,,290,2013-09-06 12:00:00
6:00 AM,14.7,13.3,94,29.70,-9999.0,West,2.3,-,N/A,,Unknown,280,2013-09-06 12:00:00
7:00 AM,15.6,14.4,95,29.69,-9999.0,West,4.6,-,N/A,,Unknown,280,2013-09-06 13:00:00
8:00 AM,17.2,16.2,96,29.69,-9999.0,WNW,3.5,-,N/A,,Unknown,290,2013-09-06 14:00:00
9:00 AM,18.0,16.5,94,29.68,-9999.0,WNW,4.6,-,N/A,,Unknown,300,2013-09-06 15:00:00
10:00 AM,17.8,16.5,95,29.68,-9999.0,WNW,4.6,-,N/A,,Unknown,300,2013-09-06 16:00:00
11:00 AM,18.0,16.7,95,29.69,-9999.0,NW,4.6,-,N/A,,Unknown,320,2013-09-06 17:00:00
12:00 PM,18,17,91,29.69,,NW,4.6,,,,,320,2013-09-06 18:00:00
12:00 PM,18.0,16.7,95,29.69,-9999.0,NW,4.6,-,N/A,,Unknown,310,2013-09-06 18:00:00
1:00 PM,19.0,17.6,94,29.69,-9999.0,NW,4.6,-,N/A,,Unknown,310,2013-09-06 19:00:00
2:00 PM,19.4,18.1,95,29.70,-9999.0,NW,4.6,-,N/A,,Unknown,310,2013-09-06 20:00:00
3:00 PM,19.6,18.5,96,29.70,-9999.0,NW,4.6,-,N/A,,Unknown,320,2013-09-06 21:00:00
4:00 PM,20.1,19.0,96,29.69,-9999.0,NW,4.6,-,N/A,,Unknown,320,2013-09-06 22:00:00
5:00 PM,20.7,19.6,96,29.69,-9999.0,NW,4.6,-,N/A,,Unknown,320,2013-09-06 23:00:00
6:00 PM,21.2,20.3,96,29.69,-9999.0,NW,4.6,-,N/A,,Unknown,320,2013-09-07 00:00:00
7:00 PM,22.1,21.2,96,29.68,-9999.0,NNW,4.6,-,N/A,,Unknown,330,2013-09-07 01:00:00
8:00 PM,21.9,21.0,96,29.68,-9999.0,North,4.6,-,N/A,,Unknown,350,2013-09-07 02:00:00
9:00 PM,21.9,21.0,96,29.68,-9999.0,North,3.5,-,0.01,,Unknown,350,2013-09-07 03:00:00
10:00 PM,21.2,20.3,96,29.69,-9999.0,North,3.5,-,N/A,,Unknown,350,2013-09-07 04:00:00
11:00 PM,20.3,19.4,96,29.70,-9999.0,North,2.3,-,N/A,,Unknown,350,2013-09-07 05:00:00